Location: Aalen
(48.8330°N, 10.1000°E)
Time: 21:46:28
(UTC+02:00)

Transit 2A - Pass Details

Date: 04 August 2021
Orbit: 594 x 964 km, 66.7° (Epoch: 27 September)

Event Time Altitude Azimuth Distance (km) Brightness Sun altitude
Rises 12:28:29 0° 324° (NW) 3,109 8.8 56.2°
Reaches altitude 10° 12:31:52 10° 349° (NNW) 2,268 8.2 56.4°
Maximum altitude 12:34:43 15° 22° (NNE) 2,032 8.1 56.6°
Drops below altitude 10° 12:37:42 10° 55° (NE) 2,405 8.6 56.8°
Sets 12:41:29 0° 79° (E) 3,422 9.4 57.0°
